[[{"header":{"parameterUnit":"m.s-1","parameterCategory":2,"la1":30.2991,"la2":30.254,"lo1":-89.0895,"lo2":-89.0444,"dy":0.0017,"dx":0.0017,"nx":28,"ny":28,"refTime":"2023-08-02T03:00:00:Z","depth":"0","parameterNumber":2,"parameterNumberName":"U-component_of_CURRENTS"},"data":[0,0,0,0,0,0,0,0,0,0,0,0,0,0,0,0,0,0,0,0,0,0,0,0,0,0,0,0,0,0,0,0,0,0,0,0,0,0,0,0,0,0,0,0,0,0,0,0,0,0,0,0,0,0,0,0,0,0,0.2796,0.2795,0,0.2726,0.2725,0.2724,0.2668,0.2668,0.2667,0.2667,0.2644,0.2644,0.2643,0,0,0,0,0,0,0,0,0,0,0,0,0,0.2952,0.2949,0.2796,0.2795,0.2794,0.2726,0.2725,0.2723,0.2668,0.2668,0.2667,0.2667,0.2644,0.2644,0.2643,0,0,0,0,0,0,0,0,0,0,0,0,0,0.2882,0.2948,0.2796,0.276,0.2756,0.2726,0.2725,0.2723,0.2668,0.2668,0.2667,0.2666,0.2644,0.2644,0.2643,0.2654,0,0,0.2642,0.2642,0,0,0,0,0,0,0,0,0.2886,0.2876,0.2766,0.2762,0.2758,0.2706,0.2771,0.2703,0.2668,0.27,0.2667,0.2666,0.2671,0.2668,0.2653,0.2653,0.2652,0.2642,0.2642,0.2642,0.2642,0,0,0,0,0,0,0,0.2891,0.2879,0.2767,0.2765,0.276,0.2771,0.2759,0.2758,0.269,0.2697,0.2693,0.2688,0.2668,0.2654,0.2653,0.2651,0.2642,0.2642,0.2642,0.2642,0.2722,0.2725,0,0,0,0,0,0,0.2899,0.2883,0.2769,0.2765,0.2823,0.2768,0.2755,0.2722,0.2688,0.2683,0.2689,0.2686,0.2655,0.2653,0.2652,0.2741,0.2642,0.2642,0.2641,0.272,0.2723,0.2726,0,0,0,0,0,0,0.2902,0.2888,0.2772,0.2826,0.2812,0.2766,0.2729,0.2721,0.2714,0.2681,0.2676,0.2691,0.2654,0.2652,0.2676,0.2737,0.2642,0.2641,0.2717,0.2721,0.2724,0.287,0,0,0,0,0,0,0.2906,0.2889,0.2879,0.2825,0.2809,0.2774,0.273,0.272,0.2712,0.2708,0.2683,0.2679,0.2653,0.2677,0.2676,0.2735,0.2641,0.2714,0.2719,0.2723,0.2862,0.2878,0.2892,0,0,0,0,0,0.2911,0.2901,0.2878,0.2866,0.2792,0.2775,0.2769,0.2734,0.2713,0.2723,0.2712,0.268,0.2704,0.2679,0.2677,0.2737,0.2712,0.2718,0.2723,0.2856,0.2875,0.2892,0,0,0,0,0,0,0.2972,0.2893,0.2867,0.2834,0.2817,0.2767,0.2771,0.2747,0.2741,0.274,0.2706,0.2703,0.2753,0.272,0.2693,0.2773,0.2705,0.271,0.2807,0.2825,0.2839,0.2917,0.2641,0,0,0,0,0,0.2978,0.2939,0.289,0.2867,0.2861,0.282,0.2811,0.2789,0.2771,0.2766,0.2751,0.2747,0.2772,0.2777,0.2783,0.282,0.2855,0.2857,0.2872,0.2885,0.2948,0.3076,0.311,0.2743,0.2743,0.2743,0,0,0.2992,0.2948,0.2924,0.2878,0.2856,0.2871,0.2813,0.2807,0.2846,0.2769,0.2818,0.28,0.2794,0.2846,0.2864,0.2826,0.2996,0.2892,0.2903,0.296,0.3085,0.3122,0.3154,0.2746,0.2746,0.2745,0,0,0.3012,0.2967,0.2949,0.2945,0.2922,0.2912,0.2918,0.2885,0.2902,0.2933,0.2909,0.2941,0.2935,0.297,0.2982,0.3083,0.3075,0.3063,0.3199,0.3322,0.3355,0.3384,0.3431,0.3464,0.3064,0.3065,0.3065,0,0.304,0.301,0.2953,0.2959,0.2985,0.294,0.2979,0.2992,0.2979,0.3029,0.2969,0.3041,0.3015,0.3137,0.3167,0.3125,0.3168,0.313,0.3347,0.3377,0.3405,0.3447,0.3481,0.3072,0.3071,0.3071,0.307,0,0.3046,0.3052,0.3056,0.3049,0.3073,0.3097,0.3117,0.3154,0.316,0.3176,0.3281,0.3256,0.3306,0.3295,0.3262,0.3445,0.34,0.3357,0.3312,0.3452,0.3484,0.3518,0.3083,0.308,0.3078,0.3076,0,0,0.3058,0.3058,0.3068,0.3114,0.3134,0.3163,0.3255,0.3343,0.3424,0.3433,0.3551,0.3597,0.3581,0.3599,0.3563,0.3662,0.3853,0.3604,0.3606,0.3668,0.4097,0.3858,0.3869,0.3859,0.3867,0.3873,0.4025,0,0.31,0.3144,0.3141,0.3247,0.3297,0.3329,0.3425,0.3504,0.3552,0.3645,0.369,0.3759,0.3699,0.3712,0.3822,0.384,0.3957,0.3814,0.3939,0.3942,0.373,0.3907,0.3594,0.3687,0.4057,0.4062,0.4066,0,0.3121,0.3167,0.3255,0.3385,0.3412,0.3472,0.3642,0.3713,0.3839,0.3876,0.3972,0.3974,0.4116,0.4022,0.4224,0.4137,0.4166,0.4176,0.4181,0.3949,0.3769,0.3615,0.3733,0.358,0.4117,0.4113,0.4109,0,0.3173,0.3267,0.3354,0.3389,0.3505,0.359,0.3661,0.3788,0.387,0.4015,0.4061,0.4225,0.4268,0.4393,0.4377,0.4341,0.4562,0.4497,0.4327,0.4306,0.4062,0.4006,0.4069,0.4709,0.4709,0.4709,0.4708,0,0.3221,0.3301,0.3385,0.3438,0.3596,0.3649,0.3803,0.3893,0.4002,0.4098,0.4172,0.426,0.4375,0.4463,0.4485,0.4484,0.4656,0.4417,0.4369,0.4089,0.4037,0.3903,0.3879,0.4714,0.4713,0.4712,0.4711,0,0.3246,0.3279,0.3416,0.3563,0.361,0.3724,0.3853,0.3945,0.4037,0.4157,0.4201,0.4337,0.4438,0.449,0.4644,0.4567,0.4447,0.4567,0.4178,0.4082,0.3732,0.3725,0.3696,0.3617,0.4442,0.4438,0.4434,0,0.324,0.3308,0.3499,0.3578,0.3642,0.378,0.3859,0.3962,0.4028,0.4186,0.4237,0.4363,0.4427,0.4507,0.4394,0.4383,0.4308,0.4074,0.3961,0.3727,0.369,0.3594,0.3527,0.3688,0.3678,0.3671,0.3664,0,0.3299,0.3374,0.3498,0.3651,0.3755,0.3847,0.3946,0.3987,0.4086,0.4153,0.4235,0.43,0.4303,0.4123,0.404,0.399,0.3805,0.3908,0.3818,0.3256,0.3017,0.2905,0.3533,0.3595,0.3602,0.3607,0.3611,0.3614,0.3363,0.3469,0.3626,0.3755,0.3849,0.3883,0.3881,0.3935,0.3984,0.3951,0.4118,0.4033,0.3838,0.366,0.3596,0.3163,0.3352,0.299,0.3049,0.3011,0.2796,0.3224,0.3119,0.3123,0.3127,0.313,0.3133,0,0.3461,0.3564,0.3703,0.3834,0.3868,0.3903,0.391,0.3808,0.3754,0.3727,0.3709,0.3378,0.313,0.2934,0.2496,0.2315,0.2261,0.2234,0.2076,0.2098,0.2594,0.2413,0.1963,0.1963,0.1963,0.1963,0.1963,0.1964,0.3527,0.3685,0.3739,0.3812,0.384,0.3744,0.3679,0.3506,0.3397,0.3074,0.2803,0.2716,0.2497,0.2089,0.1737,0.1687,0.1629,0.1456,0.1648,0.1989,0.2064,0.2137,0.196,0.1422,0.1422,0.0963,0.096,0.0957]},{"header":{"parameterUnit":"m.s-1","parameterCategory":2,"la1":30.2991,"la2":30.254,"lo1":-89.0895,"lo2":-89.0444,"dy":0.0017,"dx":0.0017,"nx":28,"ny":28,"refTime":"2023-08-02T03:00:00:Z","depth":"0","parameterNumber":3,"parameterNumberName":"V-component_of_CURRENTS"},"data":[0,0,0,0,0,0,0,0,0,0,0,0,0,0,0,0,0,0,0,0,0,0,0,0,0,0,0,0,0,0,0,0,0,0,0,0,0,0,0,0,0,0,0,0,0,0,0,0,0,0,0,0,0,0,0,0,0,0,0.0201,0.0201,0,0.0197,0.0197,0.0197,0.0182,0.0181,0.0181,0.0181,0.016,0.016,0.016,0,0,0,0,0,0,0,0,0,0,0,0,0,0.0195,0.0195,0.0201,0.0201,0.0201,0.0197,0.0197,0.0197,0.0182,0.0181,0.0181,0.0181,0.016,0.016,0.016,0,0,0,0,0,0,0,0,0,0,0,0,0,0.0195,0.0195,0.0201,0.0193,0.0192,0.0197,0.0197,0.0197,0.0182,0.0181,0.0181,0.018,0.016,0.016,0.016,0.0169,0,0,0.0159,0.0159,0,0,0,0,0,0,0,0,0.0195,0.0196,0.0194,0.0193,0.0192,0.0189,0.0187,0.0187,0.0182,0.0186,0.0181,0.018,0.0169,0.0168,0.0169,0.0168,0.0167,0.0159,0.0159,0.0159,0.0159,0,0,0,0,0,0,0,0.0195,0.0196,0.02,0.0194,0.0193,0.0189,0.0188,0.0187,0.018,0.0186,0.0184,0.0184,0.0168,0.0169,0.0168,0.0167,0.0159,0.0159,0.0158,0.0158,0.0187,0.0188,0,0,0,0,0,0,0.0196,0.0196,0.02,0.0199,0.0192,0.019,0.0189,0.0191,0.0181,0.0179,0.0184,0.0183,0.017,0.0168,0.0167,0.0188,0.0159,0.0158,0.0158,0.0186,0.0187,0.0188,0,0,0,0,0,0,0.0196,0.0197,0.02,0.0197,0.0197,0.019,0.0193,0.0191,0.0193,0.018,0.0177,0.0188,0.0169,0.0168,0.0174,0.0186,0.0158,0.0158,0.0185,0.0187,0.0188,0.0222,0,0,0,0,0,0,0.0196,0.0197,0.0198,0.0197,0.0197,0.0211,0.0193,0.0191,0.0194,0.0192,0.0182,0.018,0.0169,0.0175,0.0174,0.0185,0.0158,0.0184,0.0186,0.0188,0.022,0.0224,0.0228,0,0,0,0,0,0.0196,0.0204,0.0199,0.0199,0.02,0.0211,0.0212,0.0204,0.0194,0.0203,0.0196,0.018,0.0185,0.0175,0.0174,0.0186,0.0183,0.0185,0.0187,0.0218,0.0223,0.0228,0,0,0,0,0,0,0.0197,0.0203,0.0197,0.0205,0.021,0.0209,0.0216,0.0209,0.021,0.0209,0.0192,0.0189,0.02,0.0192,0.0181,0.0201,0.0182,0.0184,0.0206,0.0211,0.0215,0.0232,0.0157,0,0,0,0,0,0.0199,0.0211,0.0212,0.0218,0.0224,0.022,0.0223,0.022,0.022,0.022,0.0214,0.0209,0.0209,0.0208,0.0208,0.0219,0.0252,0.0226,0.0231,0.0235,0.0249,0.0343,0.0358,0.0195,0.0195,0.0195,0,0,0.0198,0.0206,0.0209,0.022,0.0224,0.0239,0.0221,0.0232,0.0242,0.0218,0.0232,0.0225,0.0216,0.0228,0.0232,0.0221,0.0292,0.0237,0.024,0.0253,0.0347,0.0363,0.0378,0.0197,0.0197,0.0196,0,0,0.0217,0.0214,0.0235,0.0246,0.0258,0.0255,0.0261,0.0266,0.0266,0.028,0.0263,0.0269,0.0268,0.0267,0.0264,0.0295,0.0314,0.0289,0.0324,0.0415,0.043,0.0443,0.0482,0.0499,0.029,0.029,0.029,0,0.0214,0.0238,0.0242,0.027,0.0274,0.0265,0.0283,0.0289,0.0295,0.0304,0.0292,0.031,0.0291,0.0313,0.0314,0.0305,0.035,0.0301,0.0423,0.0437,0.0451,0.0488,0.0506,0.0292,0.0292,0.0292,0.0292,0,0.0253,0.027,0.0286,0.0313,0.0321,0.0335,0.034,0.035,0.0346,0.0355,0.0382,0.0371,0.0387,0.0373,0.0347,0.0418,0.0415,0.042,0.0413,0.0469,0.0504,0.0522,0.0295,0.0294,0.0294,0.0293,0,0,0.0248,0.0299,0.0304,0.032,0.034,0.0349,0.0372,0.039,0.0424,0.0427,0.0481,0.0456,0.0463,0.0461,0.0439,0.0495,0.0598,0.0496,0.05,0.0539,0.0783,0.0692,0.0703,0.0642,0.0646,0.0649,0.0761,0,0.0271,0.032,0.0339,0.0373,0.0391,0.0394,0.0422,0.0441,0.0466,0.0523,0.0521,0.0567,0.0495,0.052,0.056,0.0616,0.0654,0.0566,0.0719,0.0722,0.064,0.0724,0.0698,0.079,0.0779,0.0782,0.0784,0,0.0308,0.0329,0.0364,0.0403,0.0412,0.0431,0.0471,0.05,0.0572,0.0602,0.0647,0.0673,0.0735,0.0683,0.0794,0.0753,0.0762,0.0786,0.0792,0.0713,0.0667,0.0736,0.0823,0.0749,0.0812,0.081,0.0808,0,0.0303,0.035,0.037,0.0381,0.0424,0.0439,0.0461,0.0522,0.0582,0.0675,0.0761,0.0814,0.0897,0.0933,0.0947,0.0908,0.1082,0.1041,0.0951,0.0943,0.0952,0.0937,0.0992,0.1117,0.1116,0.1116,0.1116,0,0.0324,0.0345,0.0369,0.0381,0.0417,0.0444,0.0514,0.0549,0.0661,0.0784,0.081,0.0943,0.098,0.1069,0.1034,0.1057,0.1155,0.098,0.0986,0.0955,0.094,0.0897,0.0861,0.112,0.1119,0.1119,0.1118,0,0.0335,0.0351,0.0378,0.0407,0.0421,0.0448,0.055,0.0634,0.072,0.0896,0.095,0.1101,0.1227,0.1212,0.1303,0.1192,0.1163,0.1165,0.1088,0.1081,0.0883,0.0849,0.0924,0.0909,0.1105,0.1103,0.1102,0,0.035,0.0365,0.039,0.0423,0.044,0.0493,0.0566,0.0649,0.0771,0.1009,0.1127,0.1289,0.1435,0.1482,0.1347,0.1269,0.1183,0.1124,0.1019,0.0888,0.0858,0.083,0.081,0.1045,0.1043,0.1042,0.1041,0,0.0379,0.0383,0.0404,0.0466,0.0527,0.0613,0.0726,0.0829,0.0988,0.1158,0.1423,0.1562,0.1593,0.1544,0.1367,0.1276,0.1065,0.109,0.1029,0.0873,0.0786,0.0767,0.0912,0.103,0.1031,0.1032,0.1033,0.1033,0.0404,0.0424,0.0465,0.0528,0.0616,0.076,0.0853,0.1019,0.1227,0.1505,0.1617,0.183,0.1665,0.1455,0.1318,0.0974,0.1013,0.0849,0.0837,0.0834,0.0764,0.0833,0.0899,0.0899,0.0899,0.09,0.09,0,0.0444,0.0481,0.0543,0.0639,0.0769,0.0795,0.0995,0.1123,0.1383,0.1626,0.184,0.1846,0.1661,0.1403,0.0951,0.0753,0.0706,0.0655,0.0645,0.0652,0.0793,0.0728,0.0672,0.0672,0.0672,0.0672,0.0672,0.0672,0.0477,0.0536,0.0567,0.0765,0.0855,0.1027,0.1146,0.1334,0.1524,0.1772,0.1873,0.1936,0.1697,0.1058,0.0658,0.0583,0.051,0.046,0.0452,0.0548,0.0565,0.0582,0.0513,0.0413,0.0413,0.0322,0.0321,0.032]}],[{"header":{"parameterUnit":"m.s-1","parameterCategory":2,"la1":30.2991,"la2":30.254,"lo1":-89.0895,"lo2":-89.0444,"dy":0.0017,"dx":0.0017,"nx":28,"ny":28,"refTime":"2023-08-02T03:00:00:Z","depth":"2","parameterNumber":2,"parameterNumberName":"U-component_of_CURRENTS"},"data":[0,0,0,0,0,0,0,0,0,0,0,0,0,0,0,0,0,0,0,0,0,0,0,0,0,0,0,0,0,0,0,0,0,0,0,0,0,0,0,0,0,0,0,0,0,0,0,0,0,0,0,0,0,0,0,0,0,0,0.2021,0.2021,0,0.2003,0.2003,0.2002,0.2004,0.2004,0.2005,0.2005,0.2003,0.2003,0.2002,0,0,0,0,0,0,0,0,0,0,0,0,0,0.2085,0.2084,0.2021,0.2021,0.2022,0.2003,0.2003,0.2002,0.2004,0.2004,0.2005,0.2006,0.2003,0.2003,0.2002,0,0,0,0,0,0,0,0,0,0,0,0,0,0.2058,0.2083,0.2021,0.2022,0.2023,0.2003,0.2003,0.2002,0.2004,0.2004,0.2005,0.2006,0.2004,0.2003,0.2002,0.1979,0,0,0.1999,0.1999,0,0,0,0,0,0,0,0,0.206,0.2055,0.2022,0.2022,0.2023,0.2009,0.2025,0.1996,0.2003,0.2007,0.2005,0.2006,0.2008,0.2007,0.1997,0.1979,0.1979,0.1999,0.1999,0.1998,0.1998,0,0,0,0,0,0,0,0.2062,0.2056,0.2011,0.2022,0.2022,0.2034,0.203,0.2019,0.2001,0.2007,0.2008,0.2011,0.2008,0.1998,0.1997,0.1979,0.1999,0.1998,0.1998,0.1997,0.2021,0.2022,0,0,0,0,0,0,0.2067,0.2058,0.2012,0.2011,0.2047,0.2032,0.2028,0.201,0.2001,0.2001,0.201,0.2011,0.1999,0.1998,0.1997,0.206,0.1998,0.1997,0.1997,0.2019,0.2021,0.2022,0,0,0,0,0,0,0.2068,0.2062,0.2012,0.2038,0.2033,0.203,0.201,0.2009,0.2021,0.2004,0.2004,0.2025,0.1999,0.1998,0.2029,0.2056,0.1997,0.1996,0.2018,0.202,0.2021,0.2127,0,0,0,0,0,0,0.207,0.2062,0.2065,0.2037,0.2032,0.2024,0.201,0.2009,0.2021,0.2023,0.2016,0.2015,0.2,0.2031,0.2029,0.2054,0.1996,0.2017,0.2019,0.2021,0.2122,0.2132,0.2141,0,0,0,0,0,0.2072,0.2069,0.2065,0.2061,0.203,0.2025,0.2023,0.2022,0.2022,0.2034,0.2044,0.2017,0.2042,0.2032,0.2029,0.2054,0.2016,0.2018,0.2021,0.2118,0.213,0.2141,0,0,0,0,0,0,0.2083,0.2068,0.2063,0.2051,0.2051,0.2027,0.2039,0.2035,0.2048,0.2059,0.2039,0.204,0.2069,0.2048,0.2037,0.2065,0.202,0.2023,0.2096,0.2107,0.2116,0.2115,0.1995,0,0,0,0,0,0.2089,0.2096,0.2075,0.2072,0.2071,0.2059,0.2061,0.2062,0.2064,0.207,0.2067,0.2066,0.207,0.2082,0.2073,0.2097,0.2144,0.2107,0.2117,0.2125,0.2122,0.2245,0.2267,0.2031,0.2031,0.203,0,0,0.2096,0.2089,0.2093,0.2079,0.2075,0.2072,0.2062,0.2075,0.2068,0.2068,0.2076,0.2096,0.2081,0.211,0.2121,0.2104,0.2224,0.2128,0.2136,0.2127,0.225,0.2274,0.2295,0.2032,0.2032,0.2032,0,0,0.211,0.2101,0.2112,0.2124,0.2133,0.2107,0.2116,0.2109,0.2104,0.2117,0.2121,0.2175,0.2154,0.2178,0.2178,0.2232,0.2263,0.2221,0.228,0.2401,0.2422,0.2442,0.2572,0.2602,0.2235,0.2235,0.2236,0,0.2133,0.2106,0.2117,0.2138,0.2134,0.2122,0.212,0.2112,0.2121,0.2145,0.2129,0.2205,0.2181,0.2263,0.2265,0.2254,0.2337,0.2243,0.2418,0.2438,0.2456,0.2585,0.2616,0.2241,0.224,0.224,0.2239,0,0.2143,0.2138,0.2146,0.215,0.2161,0.2156,0.2146,0.2165,0.2153,0.2169,0.2253,0.2273,0.2341,0.233,0.2295,0.242,0.2445,0.2416,0.2399,0.2487,0.2616,0.2648,0.2249,0.2247,0.2245,0.2244,0,0,0.2135,0.2146,0.2154,0.2157,0.2158,0.2169,0.217,0.2175,0.2228,0.2262,0.2352,0.2364,0.2447,0.2452,0.2476,0.2548,0.273,0.2531,0.2535,0.2678,0.3037,0.2746,0.2753,0.2756,0.276,0.2764,0.3093,0,0.2123,0.2153,0.2147,0.2156,0.2152,0.2164,0.2177,0.2221,0.2248,0.2345,0.2419,0.2512,0.2475,0.2555,0.2631,0.2692,0.281,0.2644,0.2913,0.2921,0.2666,0.2777,0.2502,0.2742,0.3123,0.3128,0.3132,0,0.2119,0.2126,0.2139,0.2158,0.2163,0.219,0.2249,0.2265,0.2396,0.2445,0.2601,0.2671,0.2817,0.2757,0.299,0.29,0.2978,0.302,0.3034,0.2736,0.2684,0.2705,0.2785,0.3184,0.318,0.3176,0.3173,0,0.2096,0.2117,0.2116,0.213,0.2159,0.2197,0.2226,0.2336,0.2379,0.2568,0.2664,0.2858,0.2967,0.3113,0.314,0.3127,0.3351,0.3366,0.321,0.3195,0.2988,0.294,0.3557,0.3556,0.3555,0.3554,0.3553,0,0.2059,0.207,0.2135,0.2135,0.2189,0.2235,0.232,0.239,0.2529,0.262,0.2763,0.2867,0.3051,0.3167,0.3237,0.3274,0.3463,0.3237,0.3253,0.3013,0.2965,0.3342,0.3312,0.3567,0.3564,0.3562,0.356,0,0.2052,0.2064,0.2083,0.2139,0.2177,0.2249,0.2361,0.2431,0.2568,0.2705,0.2778,0.2936,0.308,0.3206,0.3404,0.3355,0.3441,0.3407,0.3085,0.3049,0.3224,0.3196,0.3389,0.3381,0.3375,0.3369,0.3365,0,0.2071,0.2073,0.2122,0.2153,0.2187,0.2291,0.235,0.246,0.2524,0.2707,0.2762,0.2938,0.2998,0.3149,0.3111,0.3221,0.3335,0.2981,0.2856,0.3207,0.3206,0.3189,0.317,0.2706,0.2697,0.2689,0.2682,0,0.2082,0.2092,0.2084,0.2164,0.2226,0.2284,0.2379,0.2426,0.2539,0.2641,0.2734,0.28,0.2871,0.2762,0.2771,0.2792,0.293,0.2815,0.3348,0.2691,0.2561,0.2558,0.2566,0.2613,0.262,0.2625,0.2628,0.2631,0.2096,0.2106,0.2096,0.2163,0.2235,0.2276,0.2279,0.2341,0.2405,0.2457,0.256,0.2537,0.252,0.2382,0.2313,0.2266,0.251,0.2431,0.246,0.2496,0.2257,0.211,0.2041,0.2045,0.2048,0.205,0.2053,0,0.207,0.2071,0.2114,0.2144,0.2175,0.2265,0.2279,0.2221,0.2226,0.2243,0.2255,0.2005,0.1892,0.193,0.1731,0.1685,0.174,0.1636,0.1711,0.1778,0.1839,0.1571,0.1173,0.117,0.1168,0.1166,0,0,0.2053,0.203,0.2028,0.2056,0.2128,0.2133,0.2117,0.201,0.195,0.1819,0.1742,0.1798,0.1849,0.1492,0.1417,0.1269,0.1532,0.1215,0.1918,0.2075,0.2134,0.2284,0.1941,0,0,0,0,0]},{"header":{"parameterUnit":"m.s-1","parameterCategory":2,"la1":30.2991,"la2":30.254,"lo1":-89.0895,"lo2":-89.0444,"dy":0.0017,"dx":0.0017,"nx":28,"ny":28,"refTime":"2023-08-02T03:00:00:Z","depth":"2","parameterNumber":3,"parameterNumberName":"V-component_of_CURRENTS"},"data":[0,0,0,0,0,0,0,0,0,0,0,0,0,0,0,0,0,0,0,0,0,0,0,0,0,0,0,0,0,0,0,0,0,0,0,0,0,0,0,0,0,0,0,0,0,0,0,0,0,0,0,0,0,0,0,0,0,0,0.0021,0.0021,0,0.0017,0.0017,0.0017,0.0012,0.0012,0.0012,0.0011,-0.0009,-0.0009,-0.001,0,0,0,0,0,0,0,0,0,0,0,0,0,0.0009,0.001,0.0021,0.0021,0.0021,0.0017,0.0017,0.0017,0.0012,0.0012,0.0012,0.0011,-0.0009,-0.0009,-0.001,0,0,0,0,0,0,0,0,0,0,0,0,0,0.0011,0.001,0.0021,0.0018,0.0018,0.0017,0.0017,0.0017,0.0012,0.0012,0.0012,0.0011,-0.0009,-0.0009,-0.001,-0.0012,0,0,-0.0012,-0.0013,0,0,0,0,0,0,0,0,0.0011,0.0011,0.0019,0.0018,0.0018,0.0015,0.0006,0.0007,0.0012,0.0014,0.0011,0.0011,-0.0002,-0.0004,-0.0004,-0.0013,-0.0014,-0.0012,-0.0013,-0.0013,-0.0013,0,0,0,0,0,0,0,0.0011,0.0011,0.002,0.0019,0.0018,0.0012,0.0012,0.0006,0.0006,0.0014,0.0013,0.0013,-0.0003,-0.0003,-0.0005,-0.0014,-0.0012,-0.0013,-0.0013,-0.0014,-0.0022,-0.0022,0,0,0,0,0,0,0.0013,0.0011,0.002,0.0019,0.0014,0.0012,0.0013,0.0016,0.0006,0.0005,0.0013,0.0013,-0.0002,-0.0004,-0.0005,-0.0006,-0.0013,-0.0014,-0.0014,-0.0022,-0.0022,-0.0022,0,0,0,0,0,0,0.0012,0.0013,0.002,0.0015,0.0016,0.0013,0.0017,0.0016,0.0017,0.0006,0.0005,0.0015,-0.0002,-0.0004,-0.0008,-0.0007,-0.0014,-0.0015,-0.0022,-0.0022,-0.0022,-0.0008,0,0,0,0,0,0,0.0012,0.0014,0.0014,0.0016,0.0016,0.0024,0.0017,0.0016,0.0017,0.0017,0.0008,0.0006,-0.0002,-0.0007,-0.0009,-0.0008,-0.0015,-0.0023,-0.0022,-0.0022,-0.0009,-0.0007,-0.0006,0,0,0,0,0,0.0012,0.0017,0.0014,0.0015,0.0018,0.0024,0.0024,0.0021,0.0018,0.0021,0.0014,0.0006,-0.0006,-0.0007,-0.001,-0.0009,-0.0023,-0.0022,-0.0022,-0.0009,-0.0008,-0.0006,0,0,0,0,0,0,0.0007,0.0016,0.0014,0.002,0.0023,0.0023,0.0026,0.0024,0.0021,0.002,0.0008,0.0006,0.0001,-0.0004,-0.0005,-0.001,-0.0016,-0.0015,-0.0005,-0.0004,-0.0002,0.0004,-0.0016,0,0,0,0,0,0.0008,0.0018,0.002,0.0025,0.0028,0.0027,0.0028,0.0028,0.0026,0.0025,0.0019,0.0011,0.0001,-0.0001,-0.0009,-0.0009,0.0015,-0.001,-0.0008,-0.0007,-0.0003,0.0045,0.0051,-0.002,-0.002,-0.002,0,0,0.0005,0.0014,0.0017,0.0026,0.0028,0.0034,0.0028,0.0035,0.0036,0.0023,0.0025,0.0015,0.0001,-0.0002,-0.0004,-0.0005,0.0026,-0.0007,-0.0006,-0.0002,0.0046,0.0053,0.006,-0.002,-0.002,-0.002,0,0,0.0017,0.0016,0.0031,0.0037,0.0046,0.0042,0.0045,0.0049,0.0047,0.0046,0.0034,0.0032,0.0018,0.0013,0.0007,0.0013,0.003,0.0005,0.0019,0.0066,0.0073,0.0079,0.0123,0.0133,0.0009,0.0009,0.0009,0,0.0011,0.0031,0.0035,0.0052,0.0054,0.0047,0.0057,0.0054,0.0055,0.006,0.0049,0.0046,0.0027,0.0031,0.0022,0.0016,0.0046,0.0014,0.0069,0.0076,0.0082,0.0126,0.0137,0.001,0.001,0.0009,0.0009,0,0.0037,0.0049,0.0058,0.0075,0.0077,0.0085,0.0082,0.0085,0.0077,0.0079,0.0085,0.0069,0.0075,0.0058,0.0033,0.0061,0.0069,0.0065,0.0068,0.009,0.0135,0.0146,0.0011,0.001,0.001,0.001,0,0,0.0033,0.0068,0.0071,0.0086,0.0089,0.0098,0.0098,0.0103,0.0138,0.0113,0.0158,0.0104,0.0111,0.0103,0.0086,0.0104,0.0157,0.0096,0.0098,0.0145,0.0267,0.0184,0.0189,0.0168,0.0169,0.0171,0.0283,0,0.0048,0.008,0.0093,0.0116,0.0127,0.0126,0.0144,0.0149,0.0162,0.0209,0.0179,0.0214,0.0125,0.0152,0.0147,0.0175,0.0186,0.0127,0.0234,0.0237,0.0165,0.0198,0.0206,0.0298,0.0294,0.0296,0.0297,0,0.0072,0.0087,0.0107,0.0152,0.0161,0.0169,0.0209,0.023,0.0275,0.0298,0.0308,0.0318,0.0326,0.0269,0.0295,0.0266,0.0255,0.026,0.0265,0.019,0.0174,0.0273,0.0318,0.0316,0.0314,0.0313,0.0312,0,0.007,0.0106,0.0119,0.0127,0.0168,0.0178,0.0197,0.0244,0.031,0.0367,0.0453,0.0439,0.0491,0.0461,0.0417,0.0385,0.0465,0.0438,0.0348,0.0343,0.0369,0.0362,0.0456,0.0455,0.0455,0.0455,0.0454,0,0.0083,0.0103,0.0118,0.0127,0.0172,0.0189,0.0271,0.0298,0.0402,0.0528,0.0503,0.0619,0.0545,0.0572,0.0496,0.0452,0.0527,0.0359,0.0367,0.0371,0.0363,0.0388,0.0379,0.0459,0.0458,0.0457,0.0457,0,0.0086,0.0098,0.0125,0.0153,0.0173,0.0198,0.032,0.042,0.0489,0.0664,0.0701,0.0784,0.0812,0.0719,0.0708,0.058,0.0536,0.0492,0.0485,0.0486,0.0369,0.0359,0.0439,0.0437,0.0436,0.0434,0.0433,0,0.0091,0.0098,0.0135,0.0178,0.019,0.0252,0.0347,0.0438,0.0582,0.0784,0.091,0.0967,0.1028,0.0941,0.0744,0.0595,0.0558,0.0478,0.0385,0.0368,0.0369,0.0361,0.0354,0.045,0.0449,0.0448,0.0447,0,0.0097,0.0106,0.0137,0.0223,0.0303,0.0427,0.0565,0.069,0.0858,0.1002,0.1215,0.1262,0.1156,0.1001,0.0733,0.0622,0.049,0.0453,0.0503,0.0411,0.0375,0.0375,0.037,0.044,0.0441,0.0442,0.0442,0.0442,0.0113,0.0144,0.0209,0.0311,0.0413,0.0613,0.074,0.0926,0.1145,0.1351,0.1393,0.1417,0.1226,0.0864,0.0676,0.0443,0.0454,0.0357,0.0363,0.0368,0.0308,0.0266,0.0302,0.0302,0.0301,0.0301,0.0301,0,0.0161,0.0226,0.0316,0.046,0.0624,0.066,0.0921,0.1058,0.1303,0.141,0.1509,0.1292,0.1118,0.0885,0.0535,0.0331,0.0333,0.0265,0.0321,0.0329,0.0335,0.0275,0.026,0.0259,0.0259,0.0258,0,0,0.02,0.0305,0.0378,0.0651,0.0759,0.0967,0.112,0.1274,0.1377,0.1447,0.1416,0.1383,0.1135,0.0868,0.0626,0.044,0.0423,0.0397,0.045,0.0553,0.0562,0.0408,0.0324,0,0,0,0,0]}],[{"header":{"parameterUnit":"m.s-1","parameterCategory":2,"la1":30.2991,"la2":30.254,"lo1":-89.0895,"lo2":-89.0444,"dy":0.0017,"dx":0.0017,"nx":28,"ny":28,"refTime":"2023-08-02T03:00:00:Z","depth":"4","parameterNumber":2,"parameterNumberName":"U-component_of_CURRENTS"},"data":[0,0,0,0,0,0,0,0,0,0,0,0,0,0,0,0,0,0,0,0,0,0,0,0,0,0,0,0,0,0,0,0,0,0,0,0,0,0,0,0,0,0,0,0,0,0,0,0,0,0,0,0,0,0,0,0,0,0,0.0987,0.0988,0,0.1026,0.1026,0.1026,0.1057,0.1058,0.1059,0.1059,0.1079,0.1079,0.1079,0,0,0,0,0,0,0,0,0,0,0,0,0,0.0953,0.0953,0.0987,0.0988,0.0988,0.1026,0.1026,0.1026,0.1057,0.1058,0.1059,0.106,0.1079,0.1079,0.1079,0,0,0,0,0,0,0,0,0,0,0,0,0,0.0974,0.0953,0.0987,0.1011,0.1014,0.1026,0.1026,0.1026,0.1057,0.1058,0.1059,0.106,0.1079,0.1079,0.1079,0.1058,0,0,0.1079,0.1079,0,0,0,0,0,0,0,0,0.0972,0.0974,0.1007,0.101,0.1013,0.1041,0.1022,0.1038,0.1057,0.1037,0.1059,0.106,0.1066,0.1067,0.1067,0.1059,0.106,0.1079,0.1078,0.1078,0.1078,0,0,0,0,0,0,0,0.0971,0.0973,0.0998,0.1008,0.1011,0.1026,0.1029,0.1025,0.1042,0.1038,0.1042,0.1052,0.1068,0.1067,0.1068,0.1061,0.1079,0.1078,0.1078,0.1078,0.1124,0.1125,0,0,0,0,0,0,0.0972,0.0971,0.0997,0.1,0.0999,0.1026,0.1029,0.1028,0.1043,0.1047,0.1051,0.1053,0.1067,0.1068,0.1069,0.1116,0.1078,0.1078,0.1078,0.1123,0.1124,0.1126,0,0,0,0,0,0,0.0971,0.0973,0.0996,0.0991,0.0995,0.1025,0.1023,0.1028,0.1058,0.1053,0.1057,0.108,0.1068,0.1069,0.1083,0.1115,0.1078,0.1078,0.1121,0.1123,0.1125,0.1166,0,0,0,0,0,0,0.0969,0.0972,0.098,0.099,0.0995,0.1017,0.1023,0.1028,0.1063,0.1067,0.1079,0.108,0.1069,0.1083,0.1083,0.1114,0.1078,0.112,0.1122,0.1125,0.1163,0.1169,0.1174,0,0,0,0,0,0.0968,0.097,0.0979,0.0984,0.1001,0.1018,0.1021,0.1044,0.1064,0.1075,0.1084,0.1081,0.1099,0.1083,0.1083,0.1115,0.1119,0.1122,0.1124,0.116,0.1168,0.1174,0,0,0,0,0,0,0.0962,0.0974,0.0984,0.0992,0.1012,0.1025,0.1045,0.106,0.1077,0.1089,0.1085,0.1086,0.1106,0.1107,0.109,0.1137,0.1114,0.1117,0.1142,0.1148,0.1154,0.1112,0.1078,0,0,0,0,0,0.0963,0.0969,0.0986,0.0996,0.1011,0.1034,0.105,0.1065,0.1079,0.1089,0.1101,0.1114,0.1112,0.1129,0.1122,0.1149,0.1159,0.1174,0.118,0.1185,0.1152,0.1238,0.1248,0.1135,0.1135,0.1135,0,0,0.0967,0.0975,0.0981,0.0997,0.1018,0.1022,0.1046,0.1077,0.1076,0.1087,0.1106,0.1124,0.1119,0.114,0.1153,0.1152,0.1221,0.1188,0.1192,0.1156,0.1242,0.1253,0.1263,0.1137,0.1137,0.1137,0,0,0.097,0.0987,0.0992,0.1,0.1032,0.104,0.1056,0.1087,0.1102,0.1123,0.1126,0.1165,0.1179,0.1182,0.1182,0.1218,0.1236,0.1237,0.1246,0.1332,0.1342,0.1351,0.1373,0.1383,0.1257,0.1257,0.1257,0,0.0977,0.0967,0.1,0.0999,0.0986,0.1048,0.1031,0.1061,0.1092,0.1103,0.1137,0.117,0.119,0.1191,0.1214,0.1229,0.1263,0.1222,0.134,0.1349,0.1357,0.1377,0.1388,0.126,0.1259,0.1259,0.1259,0,0.0967,0.0962,0.097,0.0973,0.0972,0.0975,0.1,0.1038,0.1081,0.1106,0.1141,0.1177,0.1206,0.1234,0.1234,0.1296,0.1294,0.1327,0.1321,0.1371,0.1389,0.14,0.1263,0.1262,0.1261,0.1261,0,0,0.0959,0.0958,0.0962,0.0937,0.0944,0.094,0.0957,0.0973,0.1016,0.107,0.1106,0.1136,0.1198,0.12,0.1233,0.1306,0.1413,0.1351,0.1354,0.1366,0.157,0.1446,0.1446,0.149,0.1493,0.1494,0.1558,0,0.0934,0.09,0.0904,0.0868,0.0836,0.087,0.0878,0.0911,0.0982,0.1057,0.1107,0.1169,0.1173,0.1235,0.1298,0.14,0.1444,0.1389,0.1522,0.1524,0.1406,0.1455,0.1501,0.1566,0.1568,0.157,0.1571,0,0.0903,0.0873,0.0812,0.0782,0.0779,0.078,0.0804,0.0838,0.0951,0.1016,0.1091,0.1161,0.1251,0.1282,0.1423,0.1401,0.1467,0.1529,0.1535,0.14,0.1419,0.1508,0.159,0.1589,0.1587,0.1586,0.1585,0,0.0831,0.0806,0.0741,0.0723,0.0713,0.0712,0.0747,0.083,0.0892,0.1031,0.1123,0.1201,0.1319,0.1395,0.1522,0.1509,0.1683,0.1692,0.1602,0.1593,0.1667,0.1657,0.1759,0.1759,0.1759,0.1759,0.1759,0,0.0757,0.0716,0.0717,0.0677,0.0644,0.0669,0.0717,0.0776,0.0916,0.1014,0.1124,0.1212,0.1375,0.1492,0.1544,0.1603,0.1708,0.1579,0.1606,0.1681,0.1672,0.1674,0.1663,0.1761,0.1761,0.176,0.176,0,0.0661,0.0667,0.0599,0.059,0.0601,0.0589,0.0707,0.0777,0.0919,0.1063,0.1119,0.1292,0.144,0.1539,0.1705,0.1657,0.1713,0.1694,0.1735,0.1767,0.1544,0.1535,0.1583,0.1579,0.1576,0.1574,0.1571,0,0.0601,0.0548,0.053,0.0526,0.0524,0.0561,0.0611,0.0754,0.0848,0.109,0.1145,0.1342,0.144,0.1554,0.1647,0.1697,0.1677,0.1664,0.1592,0.1506,0.1529,0.1525,0.152,0.1566,0.1566,0.1565,0.1564,0,0.0443,0.0448,0.0393,0.0421,0.045,0.05,0.0596,0.0662,0.0864,0.1002,0.1168,0.1259,0.141,0.15,0.1561,0.1584,0.1654,0.163,0.1635,0.1568,0.1487,0.1512,0.1511,0.1553,0.1555,0.1556,0.1556,0,0.0331,0.028,0.0265,0.0299,0.0346,0.0429,0.0494,0.0628,0.0743,0.1016,0.1062,0.1258,0.1415,0.1441,0.149,0.1514,0.1475,0.1406,0.1422,0.1435,0.1354,0.1227,0.1226,0,0,0,0,0,0.0215,0.0184,0.0176,0.0212,0.0283,0.0343,0.0477,0.057,0.0769,0.086,0.0973,0.1101,0.1216,0.1291,0.1285,0.1377,0.145,0.1356,0.1369,0.1492,0.1505,0.1421,0,0,0,0,0,0,0.0139,0.0087,0.0122,0.0159,0.0208,0.0292,0.0385,0.0517,0.0584,0.0785,0.0858,0.0998,0.112,0.1221,0.1257,0.1277,0.125,0.1462,0.1458,0.1485,0.1496,0.1507,0.1425,0,0,0,0,0]},{"header":{"parameterUnit":"m.s-1","parameterCategory":2,"la1":30.2991,"la2":30.254,"lo1":-89.0895,"lo2":-89.0444,"dy":0.0017,"dx":0.0017,"nx":28,"ny":28,"refTime":"2023-08-02T03:00:00:Z","depth":"4","parameterNumber":3,"parameterNumberName":"V-component_of_CURRENTS"},"data":[0,0,0,0,0,0,0,0,0,0,0,0,0,0,0,0,0,0,0,0,0,0,0,0,0,0,0,0,0,0,0,0,0,0,0,0,0,0,0,0,0,0,0,0,0,0,0,0,0,0,0,0,0,0,0,0,0,0,0.0041,0.0041,0,0.0032,0.0032,0.0032,0.0034,0.0035,0.0035,0.0035,0.0024,0.0024,0.0023,0,0,0,0,0,0,0,0,0,0,0,0,0,0.0039,0.0039,0.0041,0.0041,0.0041,0.0032,0.0032,0.0032,0.0034,0.0035,0.0035,0.0035,0.0024,0.0024,0.0023,0,0,0,0,0,0,0,0,0,0,0,0,0,0.0036,0.0039,0.0041,0.0041,0.0041,0.0032,0.0032,0.0032,0.0034,0.0035,0.0035,0.0035,0.0025,0.0024,0.0023,0.0014,0,0,0.0021,0.0021,0,0,0,0,0,0,0,0,0.0036,0.0036,0.0041,0.0041,0.0041,0.0034,0.0027,0.0025,0.0034,0.0037,0.0035,0.0035,0.0027,0.0026,0.0024,0.0013,0.0013,0.0021,0.0021,0.002,0.002,0,0,0,0,0,0,0,0.0036,0.0036,0.0038,0.0041,0.0041,0.0034,0.0034,0.0027,0.0031,0.0037,0.0037,0.0036,0.0027,0.0025,0.0024,0.0013,0.0021,0.0021,0.002,0.002,-0.0,-0.0,0,0,0,0,0,0,0.0038,0.0037,0.0038,0.0037,0.0039,0.0034,0.0034,0.0036,0.0031,0.003,0.0035,0.0036,0.0026,0.0025,0.0024,0.0028,0.002,0.002,0.0019,-0.0,-0.0,-0.0,0,0,0,0,0,0,0.0038,0.0038,0.0038,0.0036,0.0036,0.0034,0.0036,0.0036,0.0036,0.003,0.0029,0.0036,0.0026,0.0025,0.002,0.0027,0.002,0.0019,0.0,-0.0,-0.0,0.0027,0,0,0,0,0,0,0.0038,0.0039,0.004,0.0037,0.0036,0.0036,0.0036,0.0036,0.0035,0.0035,0.003,0.0029,0.0026,0.0021,0.0019,0.0026,0.0018,0.0,0.0,-0.0,0.0027,0.0028,0.0029,0,0,0,0,0,0.0038,0.0039,0.004,0.004,0.0039,0.0036,0.0035,0.0034,0.0034,0.0035,0.0032,0.003,0.0018,0.002,0.0018,0.0025,0.0,0.0,-0.0,0.0026,0.0028,0.0029,0,0,0,0,0,0,0.0034,0.0039,0.004,0.0042,0.004,0.0036,0.0035,0.0034,0.0032,0.0033,0.0028,0.0026,0.0025,0.0017,0.002,0.0017,0.0009,0.0008,0.0029,0.0031,0.0032,0.0067,0.0018,0,0,0,0,0,0.0035,0.0041,0.004,0.0041,0.0041,0.0038,0.0036,0.0037,0.0034,0.0033,0.0029,0.0024,0.0021,0.002,0.0014,0.0012,-0.0002,0.0014,0.0016,0.0017,0.0042,0.0012,0.0013,-0.0001,-0.0001,-0.0001,0,0,0.0033,0.0037,0.004,0.0042,0.004,0.0052,0.0038,0.0037,0.0055,0.0032,0.0047,0.0028,0.002,0.0021,0.0019,0.0017,0.0009,0.0017,0.0018,0.0043,0.0012,0.0014,0.0015,-0.0001,-0.0001,-0.0001,0,0,0.0038,0.0037,0.0046,0.0052,0.0054,0.0055,0.0056,0.0053,0.006,0.0064,0.0054,0.0045,0.0035,0.0037,0.0036,0.0041,0.0015,0.0027,0.0067,0.0036,0.0038,0.0039,0.0006,0.0004,0.0031,0.0031,0.0031,0,0.0036,0.0057,0.0046,0.0062,0.0082,0.0061,0.0088,0.0085,0.0083,0.01,0.0074,0.0065,0.0051,0.0067,0.0068,0.0048,0.002,0.0062,0.0039,0.004,0.0041,0.0007,0.0004,0.0032,0.0032,0.0032,0.0031,0,0.0054,0.0076,0.0082,0.0106,0.0118,0.0134,0.0139,0.0146,0.0144,0.0147,0.0151,0.0117,0.012,0.0099,0.0088,0.0089,0.0062,0.0041,0.0038,0.0044,0.0007,0.0004,0.0034,0.0033,0.0033,0.0033,0,0,0.0046,0.009,0.0094,0.0137,0.0153,0.0174,0.0198,0.023,0.0256,0.0228,0.0249,0.0231,0.0204,0.0201,0.0166,0.0137,0.0104,0.0094,0.0092,0.0068,0.0027,0.0035,0.0032,0.0069,0.0069,0.0069,-0.0007,0,0.0073,0.013,0.0143,0.0211,0.0252,0.0262,0.0297,0.0319,0.0314,0.0316,0.028,0.0276,0.0244,0.0229,0.0198,0.0127,0.01,0.0127,0.002,0.0018,0.003,0.0031,0.0069,-0.001,-0.001,-0.0011,-0.0011,0,0.0096,0.0142,0.0216,0.0307,0.0325,0.0362,0.043,0.0455,0.045,0.044,0.0419,0.0368,0.0336,0.0283,0.0196,0.0208,0.0135,0.007,0.0065,0.0072,0.0022,-0.0014,-0.0017,-0.0017,-0.0016,-0.0016,-0.0015,0,0.0127,0.0202,0.0277,0.0304,0.0384,0.0434,0.0477,0.0502,0.0534,0.0509,0.0498,0.0447,0.0408,0.0317,0.0199,0.0189,0.0074,0.0044,-0.0013,-0.0014,-0.0012,-0.0012,-0.0014,-0.0014,-0.0013,-0.0013,-0.0013,0,0.0167,0.0229,0.0304,0.035,0.0454,0.0493,0.0583,0.0601,0.0613,0.0638,0.0567,0.0539,0.0411,0.0322,0.0213,0.0099,0.0093,0.0008,-0.0026,-0.0003,-0.0001,-0.0016,-0.0015,-0.0016,-0.0016,-0.0015,-0.0014,0,0.0197,0.0236,0.0335,0.0435,0.0474,0.0552,0.0656,0.0703,0.0707,0.0719,0.0708,0.0612,0.0502,0.037,0.0208,0.0131,0.0008,-0.0033,0.0006,-0.0027,-0.0068,-0.0065,-0.0098,-0.0098,-0.0098,-0.0098,-0.0098,0,0.0218,0.0271,0.0393,0.045,0.0504,0.0618,0.0689,0.0745,0.0771,0.0757,0.0741,0.0648,0.057,0.0358,0.0216,0.0028,-0.0001,-0.0062,-0.0058,-0.0043,-0.0073,-0.007,-0.0067,-0.0098,-0.0098,-0.0099,-0.0099,0,0.0269,0.0307,0.0379,0.0484,0.0577,0.0692,0.078,0.0803,0.0843,0.0844,0.0774,0.0661,0.0534,0.0362,0.0225,0.0083,-0.002,-0.0064,-0.0064,-0.0062,-0.0044,-0.0073,-0.007,-0.0099,-0.0099,-0.0099,-0.0099,0,0.0294,0.0349,0.0421,0.0521,0.0622,0.0717,0.0783,0.0817,0.0855,0.0824,0.0797,0.0662,0.0586,0.0388,0.0251,0.0129,0.0093,0.0046,0.0039,0.0038,0.0102,0.0145,0.0132,0,0,0,0,0,0.0319,0.0375,0.0454,0.0562,0.0652,0.0721,0.081,0.0855,0.088,0.0841,0.0825,0.0706,0.0512,0.041,0.0292,0.0238,0.0065,0.0093,0.0006,-0.0101,-0.0101,-0.0048,0,0,0,0,0,0,0.0336,0.0406,0.0448,0.0559,0.0634,0.0752,0.0814,0.0845,0.0816,0.0812,0.0705,0.0673,0.0477,0.0584,0.0288,0.025,0.0177,0.0007,0.0004,-0.0102,-0.0101,-0.0101,-0.0046,0,0,0,0,0]}]]